Lapse_Rate
5.4 5.1 5.1 5.2 4.7 4.2 4.1 3.9 3.7 3.6 3.5 3.4 3.3 3.4 3.3 3.4 3.4 3.5 3.5 3.3 3.1 3.0 3.2 3.4 3.6 3.8 4.4 4.5 4.3 4.5 4.3 4.6 4.9 4.7 4.7 4.9 4.5 4.7 4.7 4.9 5.3 5.4 5.8 5.6 5.5 4.9 4.9 7.4 7.0 6.7 7.1 7.2 7.1 7.1
5.1 4.9 5.1 4.8 4.4 4.1 3.8 3.7 3.5 3.4 3.3 3.4 3.5 3.4 3.2 3.2 3.2 3.1 3.3 2.9 2.7 2.6 2.4 3.2 3.5 3.9 4.2 4.1 3.7 4.1 4.1 4.5 5.0 5.6 5.8 5.4 5.0 5.0 5.4 4.9 6.2 5.2 6.1 5.9 5.9 5.6 7.0 6.7 6.8 6.7 6.7 6.8 7.1 7.4
4.9 4.7 4.3 3.6 3.7 3.7 3.6 3.3 3.3 3.3 3.2 3.3 3.4 3.4 3.3 3.4 3.4 3.3 3.2 2.9 2.8 2.8 2.9 2.9 4.2 4.8 4.2 4.5 4.4 3.8 4.9 5.6 6.0 6.2 5.6 5.7 4.9 5.8 6.0 6.0 6.5 6.4 6.7 5.9 5.5 5.2 5.9 7.1 6.9 6.9 7.1 6.9 6.8 7.3
4.6 4.1 3.6 3.6 3.6 3.5 3.4 3.3 3.3 3.3 3.4 3.4 3.4 3.5 3.5 3.4 3.5 3.5 3.2 3.4 3.3 3.1 2.8 3.6 4.9 5.0 5.4 5.4 5.1 4.8 5.5 5.1 5.8 6.2 5.8 5.3 5.6 6.9 7.0 7.1 7.0 7.0 7.0 6.9 6.2 5.7 6.3 6.3 6.9 7.1 7.1 7.0 6.9 7.3
3.9 3.7 3.6 3.6 3.5 3.3 3.4 3.5 3.6 3.7 3.7 3.8 3.8 4.1 4.0 4.0 4.1 4.0 3.9 4.2 4.3 4.4 3.6 3.6 4.9 6.5 6.1 6.0 6.1 5.9 5.8 6.3 6.8 6.3 6.4 6.6 6.9 6.5 7.2 7.2 7.4 7.5 7.4 7.6 7.5 7.6 6.6 7.0 7.0 7.0 6.9 7.3 7.2 7.4
3.5 3.4 3.4 3.5 3.5 3.6 3.7 3.7 3.8 3.9 4.1 4.4 4.6 5.0 5.4 5.5 5.4 5.1 5.0 5.8 6.2 6.3 4.9 4.1 4.9 6.2 6.8 6.9 7.0 7.3 7.0 6.9 7.1 7.0 6.5 6.7 6.8 6.8 7.0 6.8 8.2 7.6 8.1 8.0 7.6 7.7 6.9 7.0 6.9 6.6 7.1 7.2 7.1 7.4
3.6 3.6 3.6 3.6 3.9 4.0 4.3 4.6 4.9 5.2 5.6 5.9 6.1 6.3 6.5 6.7 6.8 6.5 6.3 7.1 7.4 7.0 6.5 5.8 3.9 6.0 7.1 7.9 7.7 7.9 7.8 7.1 7.3 6.8 6.5 6.7 7.0 6.7 7.0 6.7 7.4 8.0 7.9 7.4 7.4 7.3 7.2 6.9 6.8 6.7 7.0 7.1 7.2 7.5
3.8 4.0 4.2 4.5 5.0 5.5 5.8 6.2 6.4 6.7 6.9 7.1 7.3 7.4 7.4 7.5 7.7 7.3 8.1 7.9 7.2 7.0 6.5 5.8 5.1 6.7 7.8 7.9 7.7 7.4 7.4 7.2 7.0 6.9 6.9 6.8 7.0 6.9 6.5 7.0 7.6 7.8 7.4 7.0 7.1 7.6 7.1 6.8 6.6 6.7 6.9 7.0 7.1 7.2
4.6 5.0 5.4 5.8 6.3 6.7 6.8 7.1 7.3 7.5 7.7 7.7 7.8 8.0 7.9 7.9 7.9 8.4 8.1 7.5 7.2 6.9 6.4 6.2 6.5 6.7 7.5 7.5 7.2 7.2 7.2 6.5 6.9 6.9 6.4 6.5 6.8 6.8 6.9 7.2 7.9 7.7 7.3 6.9 7.3 7.1 6.7 6.9 7.0 7.0 7.0 7.0 7.1 7.4
5.6 6.0 6.5 6.9 7.1 7.3 7.4 7.5 7.8 8.2 8.2 8.2 8.2 8.2 8.4 8.5 8.1 7.8 7.7 7.5 7.1 6.8 6.3 6.5 6.7 6.7 7.0 7.3 6.8 6.3 6.2 6.2 6.8 6.8 6.7 6.6 6.3 6.8 7.2 7.6 7.6 7.4 7.2 7.2 7.0 7.4 7.0 7.0 7.1 7.1 7.3 7.3 7.3 7.4
6.6 7.0 7.2 7.3 7.4 7.5 7.6 8.0 8.2 8.2 8.3 8.3 8.3 8.3 8.2 8.1 7.9 7.5 7.1 7.1 7.0 6.6 6.9 7.2 7.1 7.5 7.5 6.6 6.2 5.8 6.1 6.4 7.0 7.1 6.9 6.5 6.8 8.2 7.9 7.8 7.6 7.0 6.9 7.2 7.4 7.0 7.0 7.1 7.2 7.3 7.2 7.2 7.5 7.6
7.0 7.1 7.2 7.3 7.6 7.6 7.8 8.1 8.3 8.2 8.3 8.1 7.8 7.8 8.0 8.0 7.6 7.1 6.8 7.0 6.9 6.9 7.3 7.5 7.4 7.1 6.7 6.6 5.9 6.0 6.2 6.4 7.2 7.1 6.9 7.2 8.4 8.3 8.2 8.0 7.6 7.4 7.2 7.3 7.4 7.1 7.3 7.3 7.2 7.1 7.0 7.1 7.3 7.4
7.1 7.2 7.3 7.4 7.6 7.7 7.8 8.1 8.3 8.2 8.2 8.2 8.2 8.1 8.0 7.8 7.4 6.8 7.0 7.1 7.3 7.3 7.2 7.4 7.2 7.5 7.3 6.9 6.4 6.5 7.1 7.3 7.4 7.0 7.2 8.0 7.9 7.8 7.8 7.8 7.5 7.4 7.1 7.2 7.0 7.1 7.2 7.2 7.5 7.3 7.2 7.3 7.4 7.4
7.1 7.3 7.5 7.6 7.6 7.6 7.8 8.1 8.3 8.0 8.1 8.4 8.4 7.9 8.2 8.0 7.7 7.7 7.2 7.1 7.1 7.2 7.1 7.0 7.6 7.4 7.2 7.2 7.3 7.5 7.5 7.5 7.3 6.9 7.6 7.8 7.6 7.5 7.4 7.3 7.1 7.1 7.2 7.1 7.0 7.3 7.3 7.3 7.4 7.3 7.3 7.4 7.5 7.5
7.6 7.6 7.7 7.9 7.8 8.0 7.9 8.0 8.1 8.2 8.1 8.2 8.3 8.1 8.1 8.2 8.0 8.0 7.4 7.0 6.9 6.9 7.0 7.3 7.3 7.4 7.2 7.5 7.5 7.6 7.4 7.1 6.9 7.7 7.7 7.6 7.2 7.0 7.1 7.1 7.0 6.9 6.8 6.8 7.1 7.3 7.4 7.4 7.3 7.3 7.3 7.3 7.2 7.2
7.9 7.9 7.9 7.9 8.0 8.0 7.9 8.0 8.0 8.1 7.9 8.1 7.9 8.0 8.3 7.8 7.9 7.6 7.3 7.1 6.4 6.9 6.9 7.2 7.1 7.0 7.1 7.4 7.7 7.4 7.0 7.3 7.8 7.6 7.6 7.4 6.7 6.7 6.7 6.9 6.9 7.0 6.8 6.9 7.1 7.3 7.4 7.2 7.1 7.1 7.1 7.1 7.1 7.0
8.0 8.0 8.2 8.4 8.3 7.9 7.9 7.8 7.8 7.7 7.6 7.9 8.3 8.4 8.1 7.6 7.6 7.4 7.3 7.1 6.4 6.6 6.4 6.8 6.9 7.1 7.2 7.2 7.1 6.8 7.1 7.4 7.4 7.4 7.0 7.1 6.9 6.8 6.7 6.8 6.8 6.7 6.7 6.7 6.9 6.9 7.0 7.0 7.0 7.0 7.0 6.9 6.6 6.5
8.1 8.3 8.4 8.4 8.2 7.8 7.7 7.6 7.6 7.4 7.6 8.1 8.0 7.9 7.1 7.0 7.3 7.3 7.2 6.9 6.4 6.2 6.8 6.5 6.4 6.5 7.1 7.2 7.0 7.0 7.1 7.1 6.9 6.8 6.9 6.8 6.9 6.9 6.7 6.6 6.6 6.5 6.5 6.5 6.6 6.6 6.7 6.7 6.7 6.7 6.6 6.3 6.2 6.2
8.2 8.2 8.2 8.0 7.7 7.3 7.2 7.3 7.1 7.0 7.5 7.5 7.4 6.9 6.7 6.8 7.3 7.4 7.3 6.8 6.1 6.7 6.5 6.2 6.3 6.2 6.4 6.7 7.0 7.1 7.1 6.8 6.8 6.7 6.5 6.2 6.1 6.1 6.3 6.3 6.3 6.4 6.3 6.3 6.3 6.3 6.3 6.4 6.3 6.3 6.2 6.2 6.0 5.9
8.3 8.1 7.9 7.7 7.3 7.1 7.0 7.0 7.0 7.0 7.1 7.0 6.7 6.7 6.8 7.0 7.3 7.1 6.9 6.5 6.7 6.5 5.9 6.0 6.2 6.2 6.5 6.5 6.5 6.7 6.6 6.5 6.2 5.9 5.8 5.6 5.8 5.9 6.2 6.2 6.3 6.3 6.2 6.2 6.1 6.0 6.1 6.1 6.0 5.9 5.9 5.9 5.7 5.8
8.1 8.1 7.9 7.5 7.2 7.1 7.0 6.9 6.9 7.0 7.0 6.9 6.8 7.0 6.9 7.0 6.9 6.9 6.6 6.7 6.7 6.2 5.7 5.8 6.0 6.1 6.2 6.2 6.4 6.4 6.0 5.8 5.7 5.5 5.6 5.4 5.5 5.7 5.9 5.9 5.9 5.8 5.9 6.0 6.1 6.0 5.8 5.8 5.8 5.8 5.8 5.8 5.9 5.8
8.0 7.9 7.7 7.5 7.1 7.0 7.0 7.1 7.0 7.1 7.0 6.9 7.0 6.8 6.7 6.7 6.7 6.4 6.4 6.4 6.2 5.9 5.8 5.8 5.6 5.7 5.8 5.7 5.7 5.7 5.5 5.5 5.4 5.4 5.4 5.4 5.3 5.3 5.5 5.6 5.7 5.8 5.8 5.8 5.9 6.0 6.0 6.0 5.9 6.0 5.9 5.9 5.9 5.9
8.0 7.9 7.7 7.5 7.2 7.1 7.2 7.0 7.1 7.0 7.0 6.9 6.8 6.7 6.6 6.4 6.3 6.1 5.9 5.6 5.5 5.4 5.4 5.5 5.5 5.4 5.2 5.2 5.2 5.2 5.2 5.2 5.2 5.1 5.2 5.2 5.3 5.4 5.5 5.5 5.5 5.8 6.0 6.0 5.9 5.8 6.0 6.2 6.3 6.2 6.1 6.1 6.2 6.1
8.0 7.8 7.6 7.5 7.3 7.2 7.2 7.0 7.0 6.9 6.8 6.7 6.6 6.4 6.3 5.9 5.8 5.7 5.5 5.3 5.1 5.0 4.9 4.9 5.0 5.0 5.0 4.9 4.8 5.0 5.0 5.0 5.1 5.0 5.1 5.1 5.3 5.5 5.7 5.9 5.8 5.7 5.8 6.4 6.6 6.5 6.4 6.3 6.2 5.9 6.3 6.0 5.9 5.8
7.9 7.8 7.7 7.5 7.3 7.2 7.0 6.9 6.8 6.7 6.5 6.4 6.3 6.2 5.9 5.7 5.5 5.2 5.1 5.0 5.0 4.8 4.7 4.7 4.7 4.8 5.0 5.0 4.9 4.8 4.8 4.8 5.0 5.4 5.6 5.7 5.6 5.3 5.3 5.7 6.0 6.1 6.2 6.2 6.3 6.2 6.2 6.1 6.1 6.1 6.1 6.1 5.7 5.4
8.0 7.8 7.8 7.6 7.4 7.1 6.9 6.7 6.8 6.8 6.4 6.2 6.2 6.0 5.7 5.5 5.5 5.2 4.9 4.9 4.8 4.8 4.6 4.6 4.7 4.8 4.9 4.9 4.9 4.9 4.9 5.1 5.3 5.5 5.5 5.2 4.7 5.0 5.5 5.9 6.0 6.2 6.2 5.6 5.6 5.7 6.1 6.1 6.0 5.9 5.7 5.6 5.3 5.1
8.1 8.0 7.8 7.7 7.6 7.3 7.0 6.8 6.8 6.7 6.5 6.1 6.0 6.1 6.0 5.8 5.4 5.1 4.9 4.8 4.8 4.8 4.8 4.8 4.8 4.8 4.8 4.9 4.8 4.8 4.9 5.1 5.3 5.6 5.5 4.5 4.9 5.4 5.3 5.3 5.5 5.8 6.1 5.7 5.5 5.3 5.4 5.6 5.5 5.3 4.9 4.8 4.8 4.7
8.2 8.1 7.9 7.8 7.7 7.6 7.4 7.0 6.9 6.8 6.5 6.3 6.1 6.2 5.9 5.7 5.4 5.2 4.9 4.8 4.8 4.8 4.8 4.8 4.7 4.7 4.7 4.8 4.9 4.9 5.0 5.1 5.1 5.2 5.5 4.6 4.6 5.2 5.6 5.5 5.4 5.6 5.9 5.7 5.4 5.3 5.1 4.9 4.8 4.7 4.7 4.5 4.5 4.6
8.4 8.2 8.0 7.8 7.8 7.7 7.5 7.3 7.0 6.9 6.7 6.5 6.3 6.2 6.1 5.8 5.6 5.2 5.0 4.8 4.8 4.8 4.7 4.6 4.5 4.5 4.6 4.7 4.8 4.9 5.0 5.1 5.3 5.5 5.2 4.9 4.8 4.9 5.0 5.0 5.1 5.2 5.2 5.2 5.1 4.9 4.7 4.6 4.5 4.6 4.5 4.6 4.6 4.6
8.4 8.2 8.1 8.0 7.9 7.7 7.5 7.1 6.9 6.8 6.7 6.6 6.5 6.4 5.9 5.6 5.6 5.5 5.2 5.0 4.9 4.8 4.8 4.6 4.4 4.4 4.4 4.6 4.6 4.8 4.8 4.8 4.9 4.8 4.6 4.9 5.1 5.2 5.1 4.8 4.7 4.7 4.8 4.7 4.7 4.8 4.8 4.7 4.6 4.6 4.6 4.6 4.6 4.6
8.2 8.1 8.0 8.0 7.9 7.8 7.4 7.1 6.7 6.6 6.4 6.2 5.9 5.7 5.6 5.6 5.5 5.5 5.5 5.4 5.2 5.0 4.9 4.8 4.7 4.5 4.4 4.5 4.6 4.6 4.6 4.6 4.7 4.9 4.7 4.9 4.9 4.9 4.8 4.7 4.7 4.7 4.7 4.6 4.6 4.6 4.6 4.5 4.5 4.5 4.5 4.5 4.5 4.4
8.0 8.0 8.0 8.0 8.0 7.8 7.5 7.3 7.0 6.6 6.3 6.2 6.0 5.8 5.5 5.4 5.4 5.3 5.3 5.3 5.3 5.2 5.0 4.9 4.8 4.7 4.8 4.9 4.9 4.9 4.9 5.0 5.1 5.0 5.0 4.8 4.7 4.6 4.6 4.6 4.6 4.6 4.5 4.5 4.5 4.5 4.5 4.5 4.5 4.5 4.4 4.3 4.3 4.3
7.8 7.8 7.9 7.9 7.9 7.9 7.7 7.5 7.3 7.0 6.7 6.5 6.3 6.1 5.8 5.6 5.4 5.3 5.2 5.2 5.3 5.3 5.3 5.3 5.2 5.2 5.2 5.2 5.1 5.1 5.1 5.2 5.1 5.0 4.8 4.6 4.3 4.4 4.4 4.4 4.4 4.4 4.4 4.3 4.3 4.4 4.4 4.3 4.3 4.3 4.4 4.5 4.6 4.7
Wind_Speed
8 8 7 7 9 10 9 9 10 9 9 8 9 10 9 8 8 1 2 5 3 2 5 6 4 4 3 3 3 3 4 3 2 2 3 4 5 7 7 8 7 9 5 4 5 6 11 3 5 7 4 5 4 2
10 12 11 8 11 13 12 12 11 11 12 11 11 11 10 10 9 5 1 3 5 3 4 5 7 14 13 14 5 4 6 6 3 4 2 3 4 3 6 6 6 7 12 5 8 6 5 5 6 6 3 5 4 2
11 9 11 10 13 14 13 14 13 14 13 13 14 13 11 10 10 4 2 2 1 2 4 1 10 8 9 16 12 7 6 7 5 2 1 3 7 3 5 8 4 3 4 8 10 12 20 19 15 8 7 7 4 4
10 9 10 12 13 14 15 15 16 15 16 15 15 16 15 13 11 8 3 4 2 3 3 6 4 4 8 12 15 20 21 5 2 3 4 5 5 5 4 3 3 5 4 5 11 13 14 18 9 12 9 7 5 3
10 10 11 13 14 14 15 15 16 16 16 17 16 16 15 12 12 9 4 9 10 4 3 6 7 13 14 8 11 15 15 14 7 5 6 10 6 7 10 7 15 6 8 6 9 14 8 14 7 3 5 5 4 2
11 12 13 14 13 14 13 14 15 15 15 16 17 17 17 15 11 3 3 2 12 4 4 3 4 4 7 6 11 16 14 11 10 6 5 5 7 5 4 10 30 16 16 18 19 14 17 13 7 3 4 4 2 3
12 12 12 12 15 12 14 13 14 15 16 15 16 17 18 18 5 3 4 3 10 6 3 4 4 4 4 5 3 3 8 7 9 7 9 12 7 9 5 14 4 10 9 11 12 10 6 7 6 8 5 4 2 1
11 11 11 13 12 12 12 13 16 17 16 16 15 14 15 16 11 6 11 21 20 1 2 3 4 3 5 3 3 3 4 6 7 6 5 11 6 7 9 13 16 20 16 15 10 13 6 1 5 5 4 4 4 4
12 11 10 10 12 14 12 10 13 14 16 17 19 18 4 2 2 4 12 19 11 3 3 4 4 5 2 3 3 2 3 3 3 6 5 8 7 8 9 8 9 13 14 15 6 6 6 5 7 6 5 5 4 4
4 6 9 10 11 12 12 11 13 15 15 9 3 2 2 3 5 3 3 1 4 4 4 5 4 9 3 0 3 2 3 4 3 5 4 4 10 14 15 11 9 8 10 7 6 5 6 6 7 6 6 4 3 3
6 9 10 11 12 13 13 14 16 15 2 2 2 3 3 3 2 2 2 2 3 3 5 6 13 14 5 10 8 4 3 3 3 4 5 3 4 15 17 16 14 9 9 11 5 4 8 5 7 7 5 4 4 4
10 12 12 12 13 14 15 15 16 3 3 5 4 1 1 2 2 2 3 5 4 4 3 4 5 7 4 5 6 4 4 3 5 4 3 3 4 5 8 15 11 7 8 7 5 7 6 5 4 4 4 3 4 4
12 14 15 13 14 15 16 17 19 13 11 2 1 3 3 2 3 5 5 5 4 3 4 5 6 2 4 5 4 5 6 5 2 1 4 4 2 3 4 4 6 6 7 7 5 4 5 4 4 3 3 2 2 3
14 13 13 13 15 15 17 15 14 10 3 3 3 5 5 3 5 5 3 3 6 5 9 10 5 3 3 5 3 4 3 1 1 2 5 2 2 4 3 3 4 5 6 7 6 4 5 4 3 3 2 1 2 2
15 16 16 16 16 14 11 8 8 3 1 3 3 5 6 5 3 3 4 3 3 4 6 6 5 4 3 5 3 3 1 4 5 4 2 2 1 3 3 3 6 6 5 5 4 4 4 4 4 4 3 2 4 5
16 20 9 14 12 13 5 6 2 1 1 2 2 3 4 2 4 2 2 3 2 2 5 4 4 5 6 3 4 6 5 5 3 2 1 1 2 2 4 5 5 5 5 5 5 5 5 6 6 5 5 6 6 6
13 4 13 13 15 7 9 2 2 2 3 2 4 3 1 1 4 3 1 2 0 2 2 5 5 5 0 2 3 3 3 1 1 1 1 3 3 4 4 5 5 6 6 6 5 5 5 5 6 8 10 6 8 8
3 4 12 7 7 5 1 1 2 3 3 3 1 3 2 3 2 3 3 1 1 2 2 3 4 4 4 4 3 2 1 1 3 3 3 4 4 5 5 6 6 7 7 6 6 5 6 7 9 7 7 5 8 7
6 9 4 13 6 3 3 1 1 3 5 2 3 2 2 2 2 2 1 3 5 4 3 3 4 3 3 3 6 4 2 2 2 3 5 7 6 8 7 8 8 8 7 5 8 7 7 7 6 5 4 5 7 5
10 5 6 11 5 3 2 2 0 2 3 3 1 2 2 2 2 1 2 2 2 2 1 2 2 3 4 8 7 1 3 3 4 4 5 5 4 7 7 7 7 7 7 8 8 12 8 8 7 7 7 7 8 8
4 4 8 5 3 3 3 1 2 3 2 2 1 1 2 2 1 1 2 2 2 1 2 2 4 6 8 7 3 3 5 5 5 3 3 4 4 5 6 5 6 6 7 6 8 9 10 7 6 7 8 9 8 9
2 7 2 4 3 4 2 2 2 2 0 2 2 1 2 2 2 1 1 3 1 2 2 3 5 4 5 6 5 5 7 10 8 7 9 8 5 5 5 5 6 6 7 6 6 7 7 6 7 7 9 9 10 8
9 4 3 3 3 3 4 3 2 2 0 3 2 2 2 2 2 1 2 1 2 3 6 4 5 5 4 5 6 10 9 9 7 6 6 6 6 6 5 6 5 6 6 5 5 7 8 12 11 9 9 9 8 8
8 4 3 2 3 3 2 2 1 2 3 2 2 2 2 2 3 2 2 2 3 5 6 9 6 4 3 7 7 6 5 5 6 7 6 5 6 6 5 5 5 6 4 5 6 7 7 8 11 8 8 9 9 8
5 3 4 3 3 4 4 5 5 3 2 1 2 1 2 2 2 2 1 2 4 5 7 7 6 6 4 4 5 5 8 5 5 7 6 5 4 4 5 5 6 5 3 7 7 8 8 7 8 8 9 8 10 9
3 3 3 3 3 2 3 1 1 1 2 2 1 2 1 2 3 1 1 3 3 3 5 6 5 4 4 4 3 4 4 4 4 5 4 5 4 2 4 5 4 4 5 4 8 10 9 8 9 10 9 11 15 9
3 3 2 1 1 2 1 2 1 2 2 2 2 3 2 3 1 1 1 2 2 2 3 4 4 3 3 2 3 4 4 5 5 4 3 4 5 4 3 4 6 2 3 5 7 9 10 9 9 9 9 7 5 4
3 2 3 2 2 2 3 1 1 1 1 2 1 3 2 2 1 2 2 3 4 5 4 3 3 3 2 3 3 3 4 4 4 5 7 8 7 6 6 6 6 15 8 7 8 7 8 8 8 7 7 7 4 4
2 1 2 3 3 3 1 2 1 1 3 0 1 1 1 2 2 3 3 5 4 3 3 3 3 3 2 3 3 3 3 2 2 7 9 5 3 4 5 5 6 6 7 9 18 13 11 9 8 7 6 5 3 3
2 1 3 2 3 0 2 1 2 2 2 1 1 2 2 1 2 3 4 4 4 3 3 3 3 3 3 3 3 4 4 3 2 3 5 5 3 2 3 4 5 4 4 7 8 10 15 8 8 4 4 4 4 4
1 2 3 2 2 2 2 2 2 2 2 2 2 2 1 1 1 2 4 4 3 3 4 5 4 5 4 4 3 2 3 4 4 6 8 6 5 5 4 4 3 4 5 6 5 5 6 4 4 6 7 7 7 6
3 2 3 2 1 3 3 3 2 2 3 3 3 2 2 2 2 3 4 3 3 4 6 5 4 4 5 3 2 2 3 3 3 5 7 6 6 5 4 3 5 4 6 6 5 5 7 8 6 6 6 6 4 4
2 2 2 2 3 3 3 3 4 3 3 3 2 2 0 1 1 2 2 1 0 2 4 4 4 4 4 4 3 3 5 3 8 15 17 16 15 11 7 6 5 5 7 6 5 6 8 8 6 5 5 4 4 5
Wind_Direction
264 266 267 271 275 274 274 278 282 284 281 282 286 287 290 296 291 263 228 196 154 228 261 236 199 181 216 209 230 304 351 307 309 171 198 213 224 219 224 208 191 210 199 196 213 233 270 208 77 181 232 298 285 304
265 260 266 266 262 265 271 272 277 279 278 278 278 281 286 287 292 281 229 229 173 221 251 222 222 226 226 231 227 209 237 276 262 245 236 285 255 232 207 247 199 236 222 203 196 215 252 200 246 254 238 249 279 285
278 266 262 264 268 273 274 273 271 271 273 274 271 270 270 276 280 242 197 191 249 233 281 212 248 246 222 235 212 235 243 210 238 165 311 229 257 267 219 235 221 253 199 229 255 259 266 270 266 245 232 237 260 241
270 265 260 263 270 276 277 277 275 272 271 265 268 270 269 270 271 278 176 183 136 277 251 268 284 220 224 220 218 216 234 254 205 168 228 245 242 188 256 291 271 215 134 218 256 258 281 279 260 259 239 212 225 227
262 264 265 270 270 277 283 287 277 275 274 271 266 271 269 265 273 304 233 211 185 200 247 276 298 263 247 225 229 223 222 227 229 224 219 236 236 240 250 276 268 193 210 213 250 244 246 268 258 242 201 215 218 191
259 263 271 276 273 276 276 281 279 276 276 270 267 262 262 260 262 53 326 297 225 170 259 257 256 256 242 222 229 232 222 216 217 228 218 232 230 222 236 232 247 231 238 242 254 265 248 249 237 199 189 194 220 225
257 263 268 267 275 282 283 277 275 275 276 276 268 264 260 256 212 174 200 213 108 123 285 319 289 261 242 239 225 225 213 211 214 224 230 238 233 205 245 245 127 203 220 241 250 243 239 197 219 199 180 180 192 228
258 257 266 269 275 278 285 284 284 282 276 277 270 271 272 264 268 249 245 254 253 213 230 266 264 306 191 234 244 205 226 198 203 217 202 218 222 227 245 252 237 251 252 256 230 217 255 158 140 174 168 151 182 229
255 264 266 272 279 286 280 301 301 286 280 277 276 269 297 176 203 236 254 248 215 169 219 225 210 278 129 240 238 250 240 247 222 212 206 168 207 217 229 207 208 217 214 239 192 191 207 190 185 186 189 199 213 230
243 253 269 282 283 288 293 293 290 301 296 310 71 126 241 224 231 357 318 223 206 198 218 249 184 237 173 163 266 280 220 226 238 216 164 230 241 247 238 228 241 255 216 170 146 200 211 231 206 202 205 184 192 208
273 276 281 279 282 289 294 300 301 307 334 95 167 212 238 296 70 39 271 197 200 240 223 225 224 243 209 236 242 243 266 277 247 191 200 215 248 233 227 226 229 225 201 187 162 183 186 190 180 174 186 205 216 225
276 278 279 274 280 291 292 299 303 303 198 192 171 117 38 56 54 91 238 293 246 236 215 202 238 214 219 193 199 222 221 240 256 147 218 245 248 252 217 214 211 165 154 143 152 146 136 137 148 161 179 210 224 232
291 288 276 274 286 292 294 300 295 287 120 80 89 72 106 287 178 208 238 275 262 283 351 332 295 222 169 185 194 226 229 221 121 205 229 231 15 45 71 91 93 106 121 125 125 128 134 141 142 163 188 216 234 227
287 288 285 282 285 289 297 291 297 117 133 175 148 168 203 239 231 199 199 331 318 289 327 304 292 265 184 194 235 231 226 156 221 259 241 274 309 149 127 102 114 129 130 128 128 128 128 133 132 90 94 220 205 196
291 291 280 277 282 280 284 302 133 71 141 186 147 208 215 226 255 207 211 227 234 290 290 311 265 238 217 240 186 114 183 238 211 235 245 251 142 128 100 92 116 119 121 119 124 117 116 124 118 97 35 73 104 100
290 294 280 270 263 273 199 119 97 101 53 172 183 235 239 30 271 234 230 260 232 279 295 243 249 258 214 216 174 207 156 224 247 248 286 85 58 69 95 99 104 110 112 108 107 120 121 113 108 99 69 59 65 79
293 231 276 283 247 182 146 107 85 64 187 210 248 237 208 279 236 242 168 241 231 318 257 275 251 233 285 192 234 181 209 283 134 114 74 102 112 99 87 86 88 92 92 93 95 88 89 90 84 81 79 46 66 64
230 267 286 235 164 103 38 136 126 127 248 245 190 249 195 206 245 266 247 203 306 228 254 262 308 278 320 326 30 346 346 14 64 77 72 82 79 84 87 93 83 86 89 81 84 84 78 82 87 87 85 82 79 65
192 220 235 148 132 111 113 220 135 236 237 236 254 252 226 251 234 228 235 252 251 230 255 255 283 329 325 338 323 324 6 15 53 51 70 77 84 98 89 86 86 83 78 67 82 80 76 66 76 74 72 78 80 61
176 190 159 154 103 95 37 295 44 168 264 246 286 297 251 245 259 268 271 267 277 284 208 290 299 333 302 300 299 42 81 80 97 92 70 58 65 86 84 95 94 96 92 86 84 86 82 71 57 64 68 70 74 64
92 96 69 57 46 57 132 160 300 215 295 281 308 305 280 312 323 344 325 314 37 28 319 323 298 304 311 309 335 58 66 67 65 59 82 79 55 74 78 72 77 82 86 85 87 80 73 73 74 75 77 73 72 74
104 98 82 24 72 3 63 311 208 298 252 249 319 345 295 328 320 344 317 35 18 324 300 296 307 319 334 359 10 28 76 76 60 62 56 68 66 64 60 57 79 76 69 71 82 88 84 82 86 85 85 85 79 79
104 70 50 44 63 48 254 9 43 332 341 282 333 349 331 334 275 316 68 22 359 335 316 299 327 333 342 9 49 45 47 71 70 60 60 65 60 51 57 47 47 83 88 63 78 90 90 93 90 90 87 83 84 74
54 57 82 88 81 253 357 356 348 348 327 344 337 316 328 289 312 62 73 26 339 337 348 349 1 354 359 28 40 36 31 55 71 57 40 66 71 51 49 54 56 55 60 87 85 85 83 87 92 83 80 79 71 76
86 326 88 330 324 45 24 353 340 36 288 313 318 316 330 342 66 60 59 356 341 358 353 352 10 17 28 35 30 31 21 50 73 72 28 45 79 84 68 62 58 39 16 98 88 90 82 81 80 82 79 85 89 79
103 300 98 175 282 109 192 9 309 289 321 323 334 309 321 63 59 39 20 342 331 354 347 343 340 355 29 24 28 17 1 357 64 71 29 15 22 57 103 106 91 43 16 77 109 99 89 85 87 85 76 75 91 92
107 262 292 13 227 122 23 346 342 86 62 0 338 330 18 65 60 50 32 37 325 334 312 311 331 351 6 17 39 31 24 37 66 88 75 45 35 29 34 99 102 93 63 74 94 109 113 105 98 93 90 69 55 57
161 155 147 262 66 21 134 36 56 27 335 307 350 29 89 20 67 343 345 339 318 308 302 341 4 2 5 22 44 63 60 58 73 92 87 60 45 37 38 72 85 100 89 83 90 88 96 103 106 105 102 96 78 42
69 338 117 41 31 44 110 143 220 350 347 345 114 95 96 50 358 332 324 330 323 346 14 11 13 356 10 34 40 32 27 33 58 99 98 102 81 30 7 57 77 83 89 94 95 97 98 99 97 93 95 101 103 85
298 343 94 78 98 47 253 170 270 292 299 43 78 104 92 81 22 347 348 352 7 11 358 4 2 23 15 9 13 37 30 12 44 105 128 125 119 97 48 73 81 63 73 96 99 96 93 74 87 58 70 68 59 51
0 68 71 60 129 251 253 300 286 273 21 42 357 87 88 133 98 35 13 352 344 2 29 20 21 20 15 11 9 12 34 15 33 83 98 103 102 91 81 74 73 81 83 92 93 99 107 86 86 86 76 68 47 53
21 74 119 96 278 309 9 39 4 52 359 41 11 13 21 58 26 334 357 353 13 27 19 16 10 349 341 326 332 323 95 87 71 99 103 104 101 99 102 94 90 92 95 89 88 94 89 90 82 76 75 64 45 26
45 45 47 75 30 15 348 57 23 12 24 32 11 12 58 28 200 285 309 87 275 322 337 323 315 320 341 2 26 68 96 103 125 115 114 116 120 119 102 91 88 91 98 95 85 92 85 89 79 77 70 52 22 8